Погода в Крутихе

Россия / Свердловская область     57°12′41″N   61°06′20″E
темп.,
°C
ветер,
м/с
пор.,
м/с
влажн.,
%
обл.,
%
осадки,
мм/ч
давл.,
гПа
погр.,
м
7 марта, вс
вс723:00−16з369432 0.1 1011123
02:00−18зюз23960 0.0 101236
05:00−20зюз23970 0.0 101248
08:00−20юз23980 0.0 101135
11:00−12зюз23850 0.0 1011329
14:00−9юз127889 0.1 1008806
17:00−9зюз128295 0.1 1007508
20:00−14сз1296100 0.1 100720
8 марта, пн
пн823:00−16зсз239796 0.1 100863
02:00−19з239649 0.0 100851
05:00−21зюз239625 0.0 100834
08:00−21юз23970 0.0 100844
11:00−14ю358949 0.0 1007259
14:00−10ю4892100 0.3 1004646
17:00−8ююв4791100 0.6 1003573
20:00−8ююв3696100 0.8 1001211
9 марта, вт
вт923:00−7ююз41194100 1.4 1001680
02:00−8зюз41285100 0.1 1003534
05:00−14ююз369269 0.1 1003105
08:00−11ююв279577 0.1 1001217
11:00−3ююз6138288 1.3 9981388
14:00−6зсз5885100 0.8 1000836
17:00−6сз3684100 0.9 1003814
20:00−11з229279 0.1 100521
10 марта, ср
ср1023:00−14зюз229140 0.1 100720
02:00−16з11930 0.0 100620
05:00−16ю009728 0.0 100620
08:00−15всв0097100 0.1 100520
11:00−10ссз1189100 0.4 1004366
14:00−9с2288100 0.1 1004531
17:00−10с3490100 0.3 1004476
20:00−14ссз3795100 0.1 1005262
11 марта, чт
чт1123:00−17зсз3796100 0.1 1007328
02:00−22зсз399290 0.1 1008285
05:00−26з4109173 0.1 1009253
08:00−23з5139250 0.0 1009465
11:00−19з5119273 0.1 1009606
14:00−16з61087100 0.3 1009774
17:00−15з61086100 0.3 10101025
20:00−15з51387100 0.0 1011804